PGT689 EDDF-EDDK

Flight info

Callsign PGT689
Flight time 0h 25m
Altitude 8000
Route ROLIS
Aircraft A20N/M-SDE3FGRWY/S

Departure

Time 2026-04-18 09:05
Airport Frankfurt Main Airport (EDDF)

Arrival

Time 2026-04-18 09:31
Airport Cologne Bonn Airport (EDDK)
Time Latitude Longitude Altitude Speed Heading
2026-04-18 08:43 50.04598 8.57063 360 ft 0 kts 60°
2026-04-18 08:48 50.04593 8.57050 361 ft 3 kts 60°
2026-04-18 08:48 50.04584 8.57025 361 ft 3 kts 60°
2026-04-18 08:49 50.04575 8.57000 360 ft 3 kts 60°
2026-04-18 08:49 50.04566 8.56976 361 ft 3 kts 60°
2026-04-18 08:49 50.04557 8.56953 356 ft 2 kts 59°
2026-04-18 08:49 50.04545 8.56938 361 ft 2 kts 37°
2026-04-18 08:50 50.04538 8.56927 361 ft 2 kts 53°
2026-04-18 08:50 50.04530 8.56911 361 ft 2 kts 70°
2026-04-18 08:50 50.04530 8.56887 360 ft 2 kts 136°
2026-04-18 08:50 50.04544 8.56879 360 ft 2 kts 188°
2026-04-18 08:51 50.04558 8.56882 356 ft 2 kts 202°
2026-04-18 08:51 50.04571 8.56895 355 ft 2 kts 193°
2026-04-18 08:51 50.04572 8.56895 360 ft 0 kts 189°
2026-04-18 08:52 50.04570 8.56895 355 ft 1 kts 189°
2026-04-18 08:53 50.04548 8.56889 356 ft 5 kts 189°
2026-04-18 08:53 50.04504 8.56888 359 ft 6 kts 167°
2026-04-18 08:53 50.04487 8.56918 354 ft 3 kts 106°
2026-04-18 08:53 50.04492 8.56991 352 ft 10 kts 72°
2026-04-18 08:54 50.04524 8.57132 353 ft 18 kts 70°
2026-04-18 08:54 50.04576 8.57349 358 ft 24 kts 70°
2026-04-18 08:54 50.04626 8.57551 351 ft 17 kts 73°
2026-04-18 08:54 50.04679 8.57781 359 ft 24 kts 69°
2026-04-18 08:55 50.04686 8.57812 352 ft 0 kts 69°
2026-04-18 08:55 50.04688 8.57819 358 ft 3 kts 69°
2026-04-18 08:55 50.04704 8.57887 356 ft 12 kts 72°
2026-04-18 08:55 50.04707 8.57901 353 ft 0 kts 73°
2026-04-18 08:56 50.04710 8.57920 353 ft 4 kts 73°
2026-04-18 08:57 50.04616 8.58018 348 ft 0 kts 166°
2026-04-18 08:58 50.04604 8.58022 346 ft 6 kts 166°
2026-04-18 08:58 50.04569 8.58139 338 ft 18 kts 69°
2026-04-18 08:59 50.04623 8.58363 338 ft 24 kts 70°
2026-04-18 08:59 50.04648 8.58546 330 ft 12 kts 109°
2026-04-18 08:59 50.04617 8.58576 330 ft 6 kts 163°
2026-04-18 08:59 50.04602 8.58584 329 ft 0 kts 160°
2026-04-18 09:00 50.04600 8.58585 326 ft 2 kts 160°
2026-04-18 09:00 50.04553 8.58612 327 ft 9 kts 160°
2026-04-18 09:01 50.04522 8.58619 330 ft 1 kts 179°
2026-04-18 09:01 50.04509 8.58615 332 ft 2 kts 198°
2026-04-18 09:01 50.04490 8.58588 331 ft 9 kts 231°
2026-04-18 09:01 50.04469 8.58507 330 ft 0 kts 250°
2026-04-18 09:04 50.04468 8.58503 330 ft 1 kts 250°
2026-04-18 09:04 50.04467 8.58501 331 ft 2 kts 250°
2026-04-18 09:04 50.04435 8.58364 330 ft 50 kts 249°
2026-04-18 09:05 50.04191 8.57341 354 ft 152 kts 250°
2026-04-18 09:05 50.03747 8.55519 834 ft 190 kts 249°
2026-04-18 09:05 50.03258 8.53568 1878 ft 200 kts 250°
2026-04-18 09:05 50.02725 8.51491 2922 ft 213 kts 249°
2026-04-18 09:06 50.02145 8.49297 3963 ft 226 kts 248°
2026-04-18 09:06 50.01500 8.46959 4809 ft 250 kts 246°
2026-04-18 09:06 50.00758 8.44357 5518 ft 274 kts 245°
2026-04-18 09:06 49.99976 8.41550 6308 ft 292 kts 246°
2026-04-18 09:07 49.99170 8.38563 7113 ft 306 kts 246°
2026-04-18 09:07 49.98352 8.35437 7922 ft 319 kts 247°
2026-04-18 09:07 49.97525 8.32174 8764 ft 330 kts 248°
2026-04-18 09:07 49.96700 8.28795 9626 ft 338 kts 249°
2026-04-18 09:08 49.95885 8.25324 10442 ft 346 kts 250°
2026-04-18 09:08 49.95088 8.21776 11218 ft 352 kts 251°
2026-04-18 09:08 49.94305 8.18128 11900 ft 360 kts 252°
2026-04-18 09:08 49.93543 8.14392 12592 ft 365 kts 253°
2026-04-18 09:09 49.92810 8.10591 13286 ft 370 kts 255°
2026-04-18 09:09 49.92110 8.06735 13965 ft 373 kts 256°
2026-04-18 09:09 49.91446 8.02835 14571 ft 375 kts 257°
2026-04-18 09:09 49.90820 7.98903 15175 ft 377 kts 258°
2026-04-18 09:10 49.90241 7.94981 15649 ft 380 kts 259°
2026-04-18 09:10 49.89978 7.91070 15580 ft 341 kts 271°
2026-04-18 09:10 49.90304 7.87661 15502 ft 309 kts 285°
2026-04-18 09:10 49.91140 7.84765 15443 ft 283 kts 301°
2026-04-18 09:11 49.92386 7.82569 15367 ft 262 kts 318°
2026-04-18 09:11 49.93909 7.81201 15287 ft 247 kts 336°
2026-04-18 09:11 49.95559 7.80745 15191 ft 237 kts 356°
2026-04-18 09:11 49.97137 7.81231 15072 ft 229 kts 18°
2026-04-18 09:12 49.98433 7.82586 14927 ft 223 kts 42°
2026-04-18 09:12 49.99099 7.83802 14819 ft 212 kts 33°
2026-04-18 09:12 50.00559 7.84472 14576 ft 243 kts 348°
2026-04-18 09:12 50.02169 7.83237 14261 ft 286 kts 320°
2026-04-18 09:13 50.03881 7.81160 13619 ft 321 kts 319°
2026-04-18 09:13 50.05573 7.79004 12919 ft 309 kts 318°
2026-04-18 09:13 50.07164 7.76891 12259 ft 300 kts 317°
2026-04-18 09:13 50.08705 7.74761 11610 ft 292 kts 316°
2026-04-18 09:14 50.10214 7.72590 10856 ft 299 kts 315°
2026-04-18 09:14 50.11731 7.70324 10112 ft 306 kts 314°
2026-04-18 09:14 50.13255 7.67966 9275 ft 311 kts 313°
2026-04-18 09:14 50.14781 7.65531 8406 ft 317 kts 312°
2026-04-18 09:15 50.16273 7.63081 8072 ft 305 kts 311°
2026-04-18 09:15 50.17680 7.60736 7916 ft 288 kts 311°
2026-04-18 09:15 50.19009 7.58492 7725 ft 275 kts 310°
2026-04-18 09:15 50.20274 7.56324 7522 ft 265 kts 310°
2026-04-18 09:16 50.21472 7.54242 7494 ft 250 kts 309°
2026-04-18 09:16 50.22590 7.52278 7493 ft 234 kts 309°
2026-04-18 09:16 50.23630 7.50427 7479 ft 220 kts 308°
2026-04-18 09:16 50.24669 7.48532 7555 ft 251 kts 307°
2026-04-18 09:17 50.25831 7.46345 7666 ft 258 kts 307°
2026-04-18 09:17 50.26941 7.44210 7722 ft 247 kts 306°
2026-04-18 09:17 50.27989 7.42146 7777 ft 237 kts 306°
2026-04-18 09:17 50.28978 7.40146 7823 ft 227 kts 304°
2026-04-18 09:18 50.29908 7.38207 7882 ft 218 kts 304°
2026-04-18 09:18 50.30776 7.36327 7942 ft 209 kts 304°
2026-04-18 09:18 50.31588 7.34499 7983 ft 200 kts 302°
2026-04-18 09:18 50.32342 7.32721 8011 ft 192 kts 301°
2026-04-18 09:19 50.33039 7.30985 8041 ft 184 kts 300°
2026-04-18 09:19 50.33748 7.29083 8142 ft 231 kts 298°
2026-04-18 09:19 50.34599 7.26610 8420 ft 285 kts 296°
2026-04-18 09:19 50.35744 7.23741 8599 ft 335 kts 309°
2026-04-18 09:20 50.37543 7.21179 8250 ft 352 kts 325°
2026-04-18 09:20 50.39695 7.19564 7908 ft 337 kts 341°
2026-04-18 09:20 50.41953 7.18998 7573 ft 323 kts 358°
2026-04-18 09:20 50.44137 7.19458 7223 ft 313 kts 15°
2026-04-18 09:21 50.46122 7.20726 6897 ft 304 kts 24°
2026-04-18 09:21 50.47963 7.22250 6584 ft 295 kts 28°
2026-04-18 09:21 50.49675 7.23948 6239 ft 287 kts 33°
2026-04-18 09:21 50.51275 7.25776 5893 ft 282 kts 34°
2026-04-18 09:22 50.52912 7.27393 5556 ft 274 kts 27°
2026-04-18 09:22 50.54617 7.28632 5261 ft 266 kts 19°
2026-04-18 09:22 50.56359 7.29487 4999 ft 258 kts 12°
2026-04-18 09:22 50.58080 7.29965 4753 ft 250 kts
2026-04-18 09:23 50.59788 7.30221 4479 ft 243 kts
2026-04-18 09:23 50.61442 7.30323 4295 ft 233 kts 359°
2026-04-18 09:23 50.63029 7.30271 4137 ft 223 kts 355°
2026-04-18 09:23 50.64535 7.30050 4039 ft 211 kts 350°
2026-04-18 09:24 50.65969 7.29788 3965 ft 205 kts 357°
2026-04-18 09:24 50.67373 7.30018 3838 ft 202 kts 12°
2026-04-18 09:24 50.68694 7.30670 3723 ft 195 kts 15°
2026-04-18 09:24 50.70027 7.31274 3673 ft 196 kts 12°
2026-04-18 09:25 50.71287 7.31757 3612 ft 179 kts 10°
2026-04-18 09:25 50.72468 7.32121 3503 ft 167 kts
2026-04-18 09:25 50.73605 7.32370 3365 ft 165 kts
2026-04-18 09:25 50.74753 7.32488 3224 ft 165 kts 352°
2026-04-18 09:26 50.75820 7.31928 3130 ft 160 kts 329°
2026-04-18 09:26 50.76626 7.30876 3208 ft 140 kts 311°
2026-04-18 09:26 50.77253 7.29564 3281 ft 156 kts 301°
2026-04-18 09:26 50.77815 7.28068 3198 ft 155 kts 302°
2026-04-18 09:27 50.78435 7.26722 3012 ft 148 kts 308°
2026-04-18 09:27 50.79133 7.25462 2583 ft 157 kts 317°
2026-04-18 09:27 50.80004 7.24455 2358 ft 155 kts 326°
2026-04-18 09:27 50.80853 7.23442 2049 ft 152 kts 319°
2026-04-18 09:28 50.81644 7.22336 1736 ft 151 kts 316°
2026-04-18 09:28 50.82295 7.21313 1439 ft 148 kts 313°
2026-04-18 09:29 50.82775 7.20552 1240 ft 146 kts 314°
2026-04-18 09:29 50.83484 7.19445 973 ft 141 kts 315°
2026-04-18 09:29 50.84205 7.18450 770 ft 133 kts 320°
2026-04-18 09:30 50.84893 7.17552 569 ft 124 kts 316°
2026-04-18 09:30 50.85552 7.16539 422 ft 136 kts 314°
2026-04-18 09:30 50.86230 7.15538 290 ft 130 kts 315°
2026-04-18 09:30 50.86700 7.14846 261 ft 53 kts 323°
2026-04-18 09:31 50.86885 7.14421 261 ft 46 kts 274°
2026-04-18 09:31 50.86934 7.13930 248 ft 45 kts 295°
2026-04-18 09:31 50.87141 7.13609 242 ft 43 kts 317°
2026-04-18 09:31 50.87361 7.13272 239 ft 45 kts 317°
2026-04-18 09:32 50.87602 7.12943 233 ft 46 kts 315°
2026-04-18 09:32 50.87836 7.12624 236 ft 37 kts 345°
2026-04-18 09:32 50.88014 7.12473 233 ft 26 kts 318°
2026-04-18 09:32 50.88115 7.12241 235 ft 25 kts 301°
2026-04-18 09:33 50.88190 7.12061 236 ft 5 kts 279°
2026-04-18 09:33 50.88181 7.12036 235 ft 4 kts 230°
2026-04-18 09:33 50.88157 7.12004 233 ft 4 kts 214°
2026-04-18 09:33 50.88152 7.11999 233 ft 0 kts 214°